Time,TemperatureF,DewpointF,PressureIn,WindDirection,WindDirectionDegrees,WindSpeedMPH,WindSpeedGustMPH,Humidity,HourlyPrecipIn,Conditions,Clouds,dailyrainin,SoftwareType,DateUTC
2013-01-26 00:03:00,4.8,2.0,30.12,ESE,119,0.0,-999.0,87,-99.99,,,0.00,weatherlink.com 1.10,2013-01-26 05:03:00,
2013-01-26 00:18:00,4.0,1.0,30.12,ESE,119,0.0,-999.0,86,-99.99,,,0.00,weatherlink.com 1.10,2013-01-26 05:18:00,
2013-01-26 00:33:00,3.5,1.0,30.11,ESE,119,0.0,-999.0,87,-99.99,,,0.00,weatherlink.com 1.10,2013-01-26 05:33:00,
2013-01-26 00:48:00,3.3,0.0,30.12,ESE,119,0.0,-999.0,87,-99.99,,,0.00,weatherlink.com 1.10,2013-01-26 05:48:00,
2013-01-26 01:03:00,2.5,-1.0,30.13,SSE,153,0.0,-999.0,87,-99.99,,,0.00,weatherlink.com 1.10,2013-01-26 06:03:00,
2013-01-26 01:18:00,2.1,-1.0,30.13,SSE,153,0.0,-999.0,87,-99.99,,,0.00,weatherlink.com 1.10,2013-01-26 06:18:00,
2013-01-26 01:33:00,1.8,-1.0,30.12,SSE,152,0.0,-999.0,87,-99.99,,,0.00,weatherlink.com 1.10,2013-01-26 06:33:00,
2013-01-26 01:48:00,1.7,-1.0,30.13,SSE,153,0.0,-999.0,87,-99.99,,,0.00,weatherlink.com 1.10,2013-01-26 06:48:00,
2013-01-26 02:03:00,1.5,-2.0,30.13,SSE,159,0.0,-999.0,87,-99.99,,,0.00,weatherlink.com 1.10,2013-01-26 07:03:00,
2013-01-26 02:18:00,2.2,-1.0,30.13,SSE,159,0.0,-999.0,87,-99.99,,,0.00,weatherlink.com 1.10,2013-01-26 07:18:00,
2013-01-26 02:33:00,2.3,-1.0,30.13,SSE,159,0.0,-999.0,87,-99.99,,,0.00,weatherlink.com 1.10,2013-01-26 07:33:00,
2013-01-26 02:48:00,3.6,1.0,30.13,SSE,159,0.0,-999.0,88,-99.99,,,0.00,weatherlink.com 1.10,2013-01-26 07:48:00,
2013-01-26 03:03:00,5.4,3.0,30.13,SSW,205,0.0,-999.0,88,-99.99,,,0.00,weatherlink.com 1.10,2013-01-26 08:03:00,
2013-01-26 03:18:00,6.0,3.0,30.13,SSW,192,0.0,-999.0,87,-99.99,,,0.00,weatherlink.com 1.10,2013-01-26 08:18:00,
2013-01-26 03:34:00,6.5,4.0,30.13,SSW,192,0.0,-999.0,87,-99.99,,,0.00,weatherlink.com 1.10,2013-01-26 08:34:00,
2013-01-26 03:49:00,7.0,4.0,30.14,South,191,0.0,-999.0,87,-99.99,,,0.00,weatherlink.com 1.10,2013-01-26 08:49:00,
2013-01-26 04:04:00,7.4,4.0,30.14,South,189,0.0,-999.0,87,-99.99,,,0.00,weatherlink.com 1.10,2013-01-26 09:04:00,
2013-01-26 04:19:00,7.9,5.0,30.15,South,189,0.0,-999.0,87,-99.99,,,0.00,weatherlink.com 1.10,2013-01-26 09:19:00,
2013-01-26 04:34:00,8.2,5.0,30.15,South,188,0.0,-999.0,87,-99.99,,,0.00,weatherlink.com 1.10,2013-01-26 09:34:00,
2013-01-26 04:49:00,8.5,5.0,30.16,South,188,0.0,-999.0,87,-99.99,,,0.00,weatherlink.com 1.10,2013-01-26 09:49:00,
2013-01-26 05:04:00,8.8,6.0,30.16,South,189,0.0,-999.0,87,-99.99,,,0.00,weatherlink.com 1.10,2013-01-26 10:04:00,
2013-01-26 05:19:00,9.2,6.0,30.16,South,189,0.0,-999.0,87,-99.99,,,0.00,weatherlink.com 1.10,2013-01-26 10:19:00,
2013-01-26 05:34:00,9.7,7.0,30.16,South,189,0.0,-999.0,87,-99.99,,,0.00,weatherlink.com 1.10,2013-01-26 10:34:00,
2013-01-26 05:49:00,10.1,7.0,30.16,South,188,0.0,-999.0,87,-99.99,,,0.00,weatherlink.com 1.10,2013-01-26 10:49:00,
2013-01-26 06:04:00,10.3,7.0,30.18,South,190,1.0,-999.0,87,-99.99,,,0.00,weatherlink.com 1.10,2013-01-26 11:04:00,
2013-01-26 06:19:00,10.4,7.0,30.18,South,190,0.0,-999.0,87,-99.99,,,0.00,weatherlink.com 1.10,2013-01-26 11:19:00,
2013-01-26 06:34:00,10.7,8.0,30.18,South,190,0.0,-999.0,87,-99.99,,,0.00,weatherlink.com 1.10,2013-01-26 11:34:00,
2013-01-26 06:49:00,11.0,8.0,30.20,South,190,0.0,-999.0,87,-99.99,,,0.00,weatherlink.com 1.10,2013-01-26 11:49:00,
2013-01-26 07:05:00,11.1,8.0,30.20,South,190,0.0,-999.0,87,-99.99,,,0.00,weatherlink.com 1.10,2013-01-26 12:05:00,
2013-01-26 07:20:00,11.6,9.0,30.19,South,183,0.0,-999.0,87,-99.99,,,0.00,weatherlink.com 1.10,2013-01-26 12:20:00,
2013-01-26 07:35:00,11.9,9.0,30.20,South,182,0.0,-999.0,87,-99.99,,,0.00,weatherlink.com 1.10,2013-01-26 12:35:00,
2013-01-26 07:50:00,11.9,9.0,30.20,South,182,0.0,-999.0,87,-99.99,,,0.00,weatherlink.com 1.10,2013-01-26 12:50:00,
2013-01-26 08:05:00,11.9,9.0,30.21,South,182,0.0,-999.0,87,-99.99,,,0.00,weatherlink.com 1.10,2013-01-26 13:05:00,
2013-01-26 08:20:00,12.0,9.0,30.21,South,182,0.0,-999.0,87,-99.99,,,0.00,weatherlink.com 1.10,2013-01-26 13:20:00,
2013-01-26 08:35:00,11.9,9.0,30.22,South,182,0.0,-999.0,87,-99.99,,,0.00,weatherlink.com 1.10,2013-01-26 13:35:00,
2013-01-26 08:50:00,11.9,9.0,30.22,South,182,0.0,-999.0,87,-99.99,,,0.00,weatherlink.com 1.10,2013-01-26 13:50:00,
2013-01-26 09:05:00,12.3,9.0,30.23,South,183,0.0,-999.0,87,-99.99,,,0.00,weatherlink.com 1.10,2013-01-26 14:05:00,
2013-01-26 09:20:00,13.3,10.0,30.23,South,183,0.0,-999.0,87,-99.99,,,0.00,weatherlink.com 1.10,2013-01-26 14:20:00,
2013-01-26 09:35:00,14.5,11.0,30.23,South,184,0.0,-999.0,87,-99.99,,,0.00,weatherlink.com 1.10,2013-01-26 14:35:00,
2013-01-26 09:50:00,15.0,12.0,30.23,South,179,1.0,-999.0,86,-99.99,,,0.00,weatherlink.com 1.10,2013-01-26 14:50:00,
2013-01-26 10:05:00,15.5,12.0,30.23,South,180,0.0,-999.0,85,-99.99,,,0.00,weatherlink.com 1.10,2013-01-26 15:05:00,
2013-01-26 10:20:00,16.0,12.0,30.24,South,182,0.0,-999.0,83,-99.99,,,0.00,weatherlink.com 1.10,2013-01-26 15:20:00,
2013-01-26 10:36:00,17.3,13.0,30.24,South,181,0.0,-999.0,82,-99.99,,,0.00,weatherlink.com 1.10,2013-01-26 15:36:00,
2013-01-26 10:51:00,18.8,13.0,30.25,South,180,0.0,-999.0,79,-99.99,,,0.00,weatherlink.com 1.10,2013-01-26 15:51:00,
2013-01-26 11:06:00,19.3,13.0,30.25,SSW,192,0.0,-999.0,75,-99.99,,,0.00,weatherlink.com 1.10,2013-01-26 16:06:00,
2013-01-26 11:21:00,19.2,11.0,30.25,SSW,192,0.0,-999.0,71,-99.99,,,0.00,weatherlink.com 1.10,2013-01-26 16:21:00,
2013-01-26 11:36:00,19.6,11.0,30.26,SW,229,0.0,-999.0,70,-99.99,,,0.00,weatherlink.com 1.10,2013-01-26 16:36:00,
2013-01-26 11:51:00,20.1,12.0,30.26,WSW,250,0.0,-999.0,70,-99.99,,,0.00,weatherlink.com 1.10,2013-01-26 16:51:00,
2013-01-26 12:06:00,20.7,12.0,30.26,WSW,250,0.0,-999.0,68,-99.99,,,0.00,weatherlink.com 1.10,2013-01-26 17:06:00,
2013-01-26 12:21:00,20.8,12.0,30.26,West,271,0.0,-999.0,69,-99.99,,,0.00,weatherlink.com 1.10,2013-01-26 17:21:00,
2013-01-26 12:36:00,20.8,12.0,30.27,WNW,283,0.0,-999.0,69,-99.99,,,0.01,weatherlink.com 1.10,2013-01-26 17:36:00,
2013-01-26 12:51:00,21.1,13.0,30.27,NNW,332,0.0,-999.0,70,-99.99,,,0.01,weatherlink.com 1.10,2013-01-26 17:51:00,
2013-01-26 13:06:00,21.1,12.0,30.27,NW,322,0.0,-999.0,69,-99.99,,,0.01,weatherlink.com 1.10,2013-01-26 18:06:00,
2013-01-26 13:21:00,21.0,12.0,30.28,NW,313,0.0,-999.0,69,-99.99,,,0.01,weatherlink.com 1.10,2013-01-26 18:21:00,
2013-01-26 13:36:00,21.2,12.0,30.28,NW,309,0.0,-999.0,67,-99.99,,,0.01,weatherlink.com 1.10,2013-01-26 18:36:00,
2013-01-26 13:51:00,21.5,12.0,30.28,NW,311,0.0,-999.0,66,-99.99,,,0.01,weatherlink.com 1.10,2013-01-26 18:51:00,
2013-01-26 14:07:00,21.8,12.0,30.28,WNW,298,0.0,-999.0,67,-99.99,,,0.01,weatherlink.com 1.10,2013-01-26 19:07:00,
2013-01-26 14:22:00,22.1,13.0,30.28,WNW,302,0.0,-999.0,67,-99.99,,,0.01,weatherlink.com 1.10,2013-01-26 19:22:00,
2013-01-26 14:37:00,22.3,13.0,30.29,NW,306,0.0,-999.0,67,-99.99,,,0.01,weatherlink.com 1.10,2013-01-26 19:37:00,
2013-01-26 14:52:00,22.0,13.0,30.29,WNW,300,0.0,-999.0,67,-99.99,,,0.01,weatherlink.com 1.10,2013-01-26 19:52:00,
2013-01-26 15:07:00,22.0,13.0,30.30,NW,324,0.0,-999.0,68,-99.99,,,0.01,weatherlink.com 1.10,2013-01-26 20:07:00,
2013-01-26 15:22:00,21.9,12.0,30.30,WNW,301,0.0,-999.0,67,-99.99,,,0.01,weatherlink.com 1.10,2013-01-26 20:22:00,
2013-01-26 15:37:00,21.9,13.0,30.30,WNW,303,0.0,-999.0,68,-99.99,,,0.01,weatherlink.com 1.10,2013-01-26 20:37:00,
2013-01-26 15:52:00,21.8,13.0,30.30,NW,307,0.0,-999.0,68,-99.99,,,0.01,weatherlink.com 1.10,2013-01-26 20:52:00,
2013-01-26 16:07:00,21.6,13.0,30.31,WNW,286,2.0,-999.0,68,-99.99,,,0.01,weatherlink.com 1.10,2013-01-26 21:07:00,
2013-01-26 16:22:00,21.0,12.0,30.31,West,277,0.0,-999.0,68,-99.99,,,0.01,weatherlink.com 1.10,2013-01-26 21:22:00,
2013-01-26 16:37:00,20.2,12.0,30.32,West,277,0.0,-999.0,69,-99.99,,,0.01,weatherlink.com 1.10,2013-01-26 21:37:00,
2013-01-26 16:52:00,19.7,11.0,30.32,West,277,0.0,-999.0,69,-99.99,,,0.01,weatherlink.com 1.10,2013-01-26 21:52:00,
2013-01-26 17:07:00,19.2,11.0,30.32,West,277,0.0,-999.0,71,-99.99,,,0.01,weatherlink.com 1.10,2013-01-26 22:07:00,
2013-01-26 17:23:00,19.4,11.0,30.32,West,277,0.0,-999.0,70,-99.99,,,0.01,weatherlink.com 1.10,2013-01-26 22:23:00,
2013-01-26 17:38:00,19.4,11.0,30.33,West,277,0.0,-999.0,70,-99.99,,,0.01,weatherlink.com 1.10,2013-01-26 22:38:00,
2013-01-26 17:53:00,19.4,11.0,30.33,West,277,0.0,-999.0,69,-99.99,,,0.01,weatherlink.com 1.10,2013-01-26 22:53:00,
2013-01-26 18:08:00,18.9,10.0,30.34,West,277,0.0,-999.0,69,-99.99,,,0.01,weatherlink.com 1.10,2013-01-26 23:08:00,
2013-01-26 18:23:00,16.2,7.0,30.35,West,277,0.0,-999.0,68,-99.99,,,0.01,weatherlink.com 1.10,2013-01-26 23:23:00,
2013-01-26 18:38:00,14.8,7.0,30.34,West,277,0.0,-999.0,72,-99.99,,,0.01,weatherlink.com 1.10,2013-01-26 23:38:00,
2013-01-26 18:53:00,13.5,7.0,30.36,West,277,0.0,-999.0,74,-99.99,,,0.01,weatherlink.com 1.10,2013-01-26 23:53:00,
2013-01-26 19:08:00,14.3,9.0,30.36,WSW,250,0.0,-999.0,79,-99.99,,,0.01,weatherlink.com 1.10,2013-01-27 00:08:00,
2013-01-26 19:23:00,15.6,9.0,30.37,WSW,237,0.0,-999.0,76,-99.99,,,0.01,weatherlink.com 1.10,2013-01-27 00:23:00,
2013-01-26 19:38:00,16.8,11.0,30.37,SW,229,2.0,-999.0,79,-99.99,,,0.01,weatherlink.com 1.10,2013-01-27 00:38:00,
2013-01-26 19:53:00,18.1,12.0,30.38,SW,224,4.0,-999.0,77,-99.99,,,0.01,weatherlink.com 1.10,2013-01-27 00:53:00,
2013-01-26 20:08:00,18.0,12.0,30.38,SW,223,3.0,-999.0,77,-99.99,,,0.01,weatherlink.com 1.10,2013-01-27 01:08:00,
2013-01-26 20:23:00,17.6,12.0,30.38,SW,226,2.0,-999.0,77,-99.99,,,0.01,weatherlink.com 1.10,2013-01-27 01:23:00,
2013-01-26 20:38:00,17.4,12.0,30.38,SW,225,4.0,-999.0,79,-99.99,,,0.01,weatherlink.com 1.10,2013-01-27 01:38:00,
2013-01-26 20:54:00,18.0,12.0,30.39,SW,220,3.0,-999.0,78,-99.99,,,0.01,weatherlink.com 1.10,2013-01-27 01:54:00,
2013-01-26 21:09:00,17.7,12.0,30.39,SSW,205,4.0,-999.0,78,-99.99,,,0.01,weatherlink.com 1.10,2013-01-27 02:09:00,
2013-01-26 21:24:00,17.7,13.0,30.39,SW,214,5.0,-999.0,80,-99.99,,,0.01,weatherlink.com 1.10,2013-01-27 02:24:00,
2013-01-26 21:39:00,17.8,13.0,30.39,SW,215,1.0,-999.0,80,-99.99,,,0.01,weatherlink.com 1.10,2013-01-27 02:39:00,
2013-01-26 21:54:00,17.8,13.0,30.40,SW,215,2.0,-999.0,81,-99.99,,,0.01,weatherlink.com 1.10,2013-01-27 02:54:00,
2013-01-26 22:09:00,17.6,13.0,30.40,SSW,209,2.0,-999.0,81,-99.99,,,0.01,weatherlink.com 1.10,2013-01-27 03:09:00,
2013-01-26 22:24:00,17.7,13.0,30.40,SSW,208,6.0,-999.0,81,-99.99,,,0.01,weatherlink.com 1.10,2013-01-27 03:24:00,
2013-01-26 22:39:00,18.0,13.0,30.41,SW,227,3.0,-999.0,82,-99.99,,,0.01,weatherlink.com 1.10,2013-01-27 03:39:00,
2013-01-26 22:54:00,18.8,14.0,30.41,SW,229,4.0,-999.0,81,-99.99,,,0.01,weatherlink.com 1.10,2013-01-27 03:54:00,
2013-01-26 23:09:00,19.1,14.0,30.41,SW,229,7.0,-999.0,81,-99.99,,,0.01,weatherlink.com 1.10,2013-01-27 04:09:00,
2013-01-26 23:24:00,19.0,14.0,30.42,WSW,243,5.0,-999.0,81,-99.99,,,0.01,weatherlink.com 1.10,2013-01-27 04:24:00,
2013-01-26 23:39:00,19.1,15.0,30.43,WSW,241,3.0,-999.0,82,-99.99,,,0.01,weatherlink.com 1.10,2013-01-27 04:39:00,
2013-01-26 23:54:00,19.1,15.0,30.43,SW,223,7.0,-999.0,82,-99.99,,,0.01,weatherlink.com 1.10,2013-01-27 04:54:00,